Miscellaneous Local Product
Issued by NWS Hastings, NE

Home | Current Version | Previous Version | Text Only | Print | Product List | Glossary Off
Versions: 1 2 3 4 5 6 7 8 9 10 11 12 13 14 15 16 17 18 19 20 21 22 23 24 25 26 27 28 29 30 31 32 33 34 35 36 37 38 39 40 41 42 43 44 45 46 47 48 49 50

348
AXUS43 KGID 041702
MISGRI

GID CWA HOURLY WEATHER ROUNDUP
NATIONAL WEATHER SERVICE HASTINGS NE
1100 AM CST SUN DEC 04 2016

NOTE: "FAIR" INDICATES FEW OR NO CLOUDS BELOW 12,000 FEET WITH NO
SIGNIFICANT WEATHER AND/OR OBSTRUCTIONS TO VISIBILITY.

...SOUTH CENTRAL NEBRASKA...

CITY           SKY/WX    TMP DP  RH WIND       PRES   REMARKS
GRAND ISLAND   SUNNY     39  31  72 W10       29.99S WCI  32
HASTINGS       SUNNY     36  28  73 W8        30.01R WCI  30
KEARNEY        SUNNY     39  27  60 W9        30.00S WCI  33
ORD            SUNNY     41  27  57 NW7       29.95F
YORK           SUNNY     34  30  86 W6        29.99S WCI  29
AURORA         SUNNY     37  32  80 W10       29.99S WCI  30
LEXINGTON      SUNNY     38  25  59 NW12      30.00F WCI  31
HOLDREGE       SUNNY     38  30  72 W7        30.01F WCI  32
HEBRON         CLOUDY    32  31  96 W9        30.03S FOG     WCI  24

...NEBRASKA PANHANDLE...

CITY           SKY/WX    TMP DP  RH WIND       PRES   REMARKS
CHADRON        SUNNY     38  14  37 SW9       29.94S WCI  31
ALLIANCE       SUNNY     38  18  44 W17G23    29.94F WCI  28
SCOTTSBLUFF    SUNNY     39  18  42 W7        29.96F WCI  34
SIDNEY         SUNNY     41  13  31 W18       29.98F

...WESTERN AND NORTH CENTRAL NEBRASKA...

CITY           SKY/WX    TMP DP  RH WIND       PRES   REMARKS
VALENTINE      SUNNY     41  20  43 NW12      29.92S
AINSWORTH      SUNNY     41  23  48 W14       29.92S
ONEILL         SUNNY     42  29  59 W10       29.93S
BROKEN BOW     SUNNY     43  24  47 NW9       29.96F
IMPERIAL       SUNNY     44  16  32 NW22G33   30.01F
NORTH PLATTE   SUNNY     39  22  50 W13       30.00F WCI  31
MCCOOK         SUNNY     37  22  54 W9        30.04F WCI  30

...EASTERN NEBRASKA...

CITY           SKY/WX    TMP DP  RH WIND       PRES   REMARKS
NORFOLK        SUNNY     40  29  64 W7        29.93F
SO SIOUX CITY  SUNNY     41  32  70 W7        29.93F
TEKAMAH        SUNNY     33  30  88 SW8       29.96S WCI  26
COLUMBUS       SUNNY     37  30  75 W7        29.97S WCI  32
ALBION         SUNNY     41  31  67 W3        29.95F
OMAHA EPPLEY   PTSUNNY   36  31  82 SW7       29.98F WCI  30
OFFUTT AFB     CLOUDY    35  35  99 SW10      29.98F WCI  28
MILLARD        CLOUDY    34  32  90 W7        29.98F WCI  28
LINCOLN        CLOUDY    33  31  92 SW9       30.01S WCI  25
NEBRASKA CITY  CLOUDY    35  33  92 W10       30.01R FOG     WCI  28
BEATRICE       CLOUDY    34  32  94 SW9       30.02S WCI  26
FALLS CITY     CLOUDY    35  34  96 W10       30.02F WCI  27

...NORTHERN KANSAS...

CITY           SKY/WX    TMP DP  RH WIND       PRES   REMARKS
GOODLAND       SUNNY     43  13  29 W13       30.05F
HILL CITY      SUNNY     41  27  57 NW8       30.07R
NORTON         SUNNY     39  21  48 NW15      30.03F WCI  31
PHILLIPSBURG   SUNNY     37  28  70 W10       30.05F WCI  30
SMITH CENTER   SUNNY     30  30 100 CALM      30.05S
BELOIT         SUNNY     36  30  80 W10       30.04F WCI  28
HAYS           SUNNY     37  27  67 NW14      30.07R WCI  28
RUSSELL        SUNNY     39  30  70 W14       30.05R WCI  31
CONCORDIA      CLOUDY    34  34 100 W8        30.05S WCI  27
SALINA         PTSUNNY   38  34  85 W9        30.07S WCI  31
TOPEKA         CLOUDY    41  37  86 W9        30.03F



USA.gov is the U.S. government's official web portal to all federal, state and local government web resources and services.